Location: ??????
(38.0677°N, 22.9870°E)
Time: 11:15:08
(UTC+00:00)

Cosmos 1833 - Pass Details

Date: 23 May 2024
Orbit: 835 x 863 km, 70.9° (Epoch: 18 June)

Event Time Altitude Azimuth Distance (km) Brightness Sun altitude
Exits shadow 01:16:19 34° 223° (SW) 1,365 4.7 -18.8°
Maximum altitude 01:18:47 66° 294° (WNW) 918 4.3 -18.5°
Drops below altitude 10° 01:24:25 10° 17° (NNE) 2,461 7.6 -17.7°
Sets 01:26:53 0° 20° (NNE) 3,397 8.6 -17.4°
